GAOFEN-13 02

Last updated on Thu Aug 13 2026 00:03:03 GMT+0000 (Coordinated Universal Time)

1 55912U 23036A 26224.49192192 -.00000237 00000+0 00000+0 0 9990 2 55912 0.9836 8.1535 0003848 315.9448 322.0958 1.00268410 12654
UTC large
Height (km)
Speed (km/s)
/
Latitude / Longitude
Inclination (degrees)
Orbital Period (minutes)
Azimuth
Elevation
Range (km)
Doppler Factor

Next 0 passes for location: London (51.5072 / 0.1276)

No passes found over London.
GAOFEN-13 02